Regional Weather Roundup
Issued by NWS Sioux Falls, SD

Home | Current Version | Previous Version | Graphics & Text | Print | Product List | Glossary Off
Versions: 1 2 3 4 5 6 7 8 9 10 11 12 13 14 15 16 17 18 19 20 21 22 23 24 25 26 27 28 29 30 31 32 33 34 35 36 37 38 39 40 41 42 43 44 45 46 47 48 49 50

000
ASUS43 KFSD 232110
RWRFSD

WEATHER ROUNDUP FOR SE SOUTH DAKOTA/SW MINNESOTA/NW IOWA
NATIONAL WEATHER SERVICE SIOUX FALLS SD
400 PM CDT WED APR 23 2014

NOTE: "FAIR" INDICATES FEW OR NO CLOUDS BELOW 12,000 FEET WITH NO
SIGNIFICANT WEATHER AND OR OBSTRUCTIONS TO VISIBILITY.


SDZ038>040-050-052>070-232200-
SOUTHEAST SOUTH DAKOTA

CITY           SKY/WX    TMP DP  RH WIND       PRES   REMARKS
CHAMBERLAIN      N/A     76  44  32 MISG      29.50S
HURON          MOSUNNY   68  40  35 SE22G36   29.55F
MADISON        CLOUDY    59  39  47 SE23G36   29.66S
MITCHELL       PTSUNNY   69  42  37 SE26G37   29.56F
SIOUX FALLS    PTSUNNY   61  40  45 SE24G38   29.66F
WINNER         FAIR      77  43  29 NW14G20   29.51S
YANKTON        PTSUNNY   68  45  42 SE29G36   29.61F
$$

MNZ071-072-080-081-089-090-097-098-232200-
SOUTHWEST MINNESOTA

CITY           SKY/WX    TMP DP  RH WIND       PRES   REMARKS
FAIRMONT       CLOUDY    45  34  65 SE24G33   29.90F
JACKSON        CLOUDY    46  36  66 SE26G35   29.84F
LUVERNE        PTSUNNY   59  39  47 SE29G38   29.72F
MARSHALL       CLOUDY    46  36  66 SE25G35   29.78S
MONTEVIDEO     CLOUDY    43  37  81 SE25G38   29.83F
PIPESTONE      MOSUNNY   54  39  58 S28G40    29.72F
REDWOOD FALLS  CLOUDY    44  35  70 E22G32    29.85F
TRACY          CLOUDY    47  37  68 SE25G38   29.78F
WINDOM         CLOUDY    46  37  71 SE25G35   29.82F
WORTHINGTON    CLOUDY    48  34  57 SE33G39   29.79F
$$

IAZ001>003-012>014-020>022-031-032-NEZ013-014-SDZ071-232200-
NORTHWEST IOWA

CITY           SKY/WX    TMP DP  RH WIND       PRES   REMARKS
CHEROKEE       PTSUNNY   56  42  59 SE23G36   29.77F
DENISON        CLOUDY    52  45  76 SE18G32   29.72F
ESTHERVILLE    CLOUDY    47  39  74 SE29G41   29.85F
LE MARS        PTSUNNY   63  41  45 SE26G36   29.70F
ORANGE CITY    MOSUNNY   63  39  42 SE22G32   29.71F
SHELDON        MOSUNNY   55  39  54 SE31G47   29.73F
SIOUX CITY     MOSUNNY   64  43  46 S30G36    29.71R
SPENCER        CLOUDY    49  38  65 SE28G38   29.80F
STORM LAKE     CLOUDY    50  39  66 SE26G41   29.78S
$$

ABBREVIATIONS USED IN REMARKS
   TC - TEMPERATURE IN CELSIUS
  WCI - WIND CHILL INDEX
   HX - HEAT INDEX
  VSB - VISIBILITY




USA.gov is the U.S. government's official web portal to all federal, state and local government web resources and services.